Location: T. Spence Memorial Observatory
(32.7356°N, 82.2098°W)
Time: 20:27:53
(UTC-04:00)

Cosmos 2219 - Visible Passes

Search period start: 27 August 2016 00:00
Search period end: 06 September 2016 00:00
Orbit: 835 x 858 km, 71.1° (Epoch: 27 August)

Date Brightness Start Highest point End Pass type
(mag) Time Alt. Az. Time Alt. Az. Time Alt. Az.
27 Aug 5.8 21:23:19 10° WNW 21:26:53 17° W 21:30:26 10° SW visible
28 Aug 5.8 21:09:48 10° WNW 21:13:27 18° W 21:17:06 10° SW visible
29 Aug 5.8 20:56:16 10° WNW 21:00:01 18° W 21:03:45 10° SW visible
30 Aug 5.8 20:42:45 10° WNW 20:46:33 19° W 20:50:23 10° SW visible
31 Aug 5.9 20:29:13 10° NW 20:33:07 19° W 20:37:01 10° SW visible
01 Sep 5.9 20:15:42 10° NW 20:19:41 20° W 20:23:39 10° SW visible
